Location: Dealu Mare
(46.0500°N, 22.8167°E)
Time: 20:50:28
(UTC+00:00)

Okean 2 - Pass Details

Date: 15 January 2026
Orbit: 515 x 525 km, 82.5° (Epoch: 10 February)

Event Time Altitude Azimuth Distance (km) Brightness Sun altitude
Exits shadow 04:30:03 35° 282° (WNW) 855 3.7 -16.4°
Maximum altitude 04:30:26 36° 268° (W) 838 3.7 -16.3°
Drops below altitude 10° 04:33:56 10° 201° (SSW) 1,737 5.8 -15.7°
Sets 04:36:10 0° 193° (SSW) 2,619 6.8 -15.4°
